Showing default

TIGER-6, 58272

Orbit data source: Space-Track

TIGER-6, 58272 is a payload satellite owned by OQ Tech (RW) in SSO that was launched on Sat, 11 Nov 2023 UTC via an FALCON 9 launch vehicle from the Air Force Western Test Range (AFWTR). Payload-class satellites include a variety of spacecraft equipped with specific instruments for various scientific and technological missions. These include communications satellites like Starlink; space stations such as the ISS; scientific satellites like the Hubble; Earth observation satellites from companies like Planet Labs, Umbra, and HawkEye 360; GPS; miniature CubeSats for education and research; and military/defense satellites.

Loading next visibility...
Identifier
58272, 2023-174S
Orbit
SSO
Country
Flag of RWRW / RWA
Related business
Manufacturer
Space Inventor
Mission
Operational Commercial Communications
Bus & Motor
CUBESAT 6U, Unknown motor
Mass
~10 kg wet, ~10 kg dry
Launch date (UTC)
2023-11-11 (2 years ago)
Launch vehicle
FALCON 9
Launch site
Air Force Western Test Range (AFWTR)
Object type
Payload
Rocket body
Debris
Shape & HBR
Box + 2 Pan, 0.1 m
Radar Cross Section
0.080 m², Medium (>0.1 m² and < 1m²)

Expand to show TLE details & history
Last TLE update: 6 hours ago

TLE from 6 hours ago
0 TIGER-6
1 58272U 23174S   25291.27533301  .00057007  00000-0  10780-2 0  9991
2 58272  97.4089  14.0499 0003749 294.7181  65.3678 15.48214799108470
Epoch: 2025-10-18T06:36Z
TLE epoch observation values (Epoch: 2025-10-18T06:36:28.772Z)
Latitude
-0.00009°
Longitude
-112.07866°
Altitude
424.015 km
Speed
7.657 km/s
True Right ascension
00h 56m 11s
True Declination
0° 00' 00"
Sunlit
Object was in full shadow at epoch
Visualization orbit readout
Latitude
Unknown
Longitude
Unknown
Altitude
Unknown
Speed
Unknown
Apparent Right ascension
Unknown
Apparent Declination
Unknown
Sunlit
N/A
Visualization observer readout
Local Sidereal Time
07:31:03
Azimuth
Unknown
Elevation
Unknown
Doppler factor
Unknown
Orbital elements
Apogee altitude
421.425 km
Perigee altitude
416.329 km
Semi-major axis
6,797.014 km
Eccentricity
0.00037
Inclination
97.4089°
RAAN
14.0499°
Arg. of periapsis
294.7181°
True anomaly
65.40686°
Mean anomaly
65.3678°
Eccentric anomaly
65.38733°
Mean motion
3.87316 °/min
Orbital period
92.95 mins
BSTAR
0.001078
Loading maneuver chart data...
Computing Atmospheric mass density...

Documentation

Showing up to 5 results
|